• En España
  • Lista de países
  • Para 7 días
  • Temperatura del agua
  • Mapa Satelital
  • El tiempo en el mapa
  • Informadores
  • user-avatar
    Iniciar sesión

    Tiempo cada hora Brodilovka

    Hoy, 21 Agosto, Martes

    Tiempo Temperatura Precipitaciones Viento Presión Humedad
    00:00 +19°C° 0 mm 3 mps 743 mmHg 75%
    01:00 +18°C° 0 mm 3 mps 743 mmHg 76%
    02:00 +18°C° 0 mm 3 mps 742 mmHg 78%
    03:00 +18°C° 0 mm 3 mps 742 mmHg 80%
    04:00 +18°C° 0 mm 3 mps 742 mmHg 81%
    05:00 +18°C° 0 mm 3 mps 742 mmHg 81%
    06:00 +18°C° 0 mm 3 mps 742 mmHg 82%
    07:00 +19°C° 0 mm 4 mps 741 mmHg 76%
    08:00 +21°C° 0 mm 5 mps 741 mmHg 70%
    09:00 +23°C° 0 mm 6 mps 741 mmHg 63%
    10:00 +24°C° 0 mm 6 mps 741 mmHg 59%
    11:00 +26°C° 0 mm 7 mps 740 mmHg 56%
    12:00 +27°C° 0 mm 8 mps 740 mmHg 52%
    13:00 +28°C° 0,3 mm 8 mps 740 mmHg 53%
    14:00 +28°C° 0,3 mm 8 mps 739 mmHg 54%
    15:00 +28°C° 0,3 mm 8 mps 739 mmHg 55%
    16:00 +26°C° 1,2 mm 7 mps 739 mmHg 61%
    17:00 +24°C° 1,2 mm 7 mps 738 mmHg 67%
    18:00 +23°C° 1,2 mm 6 mps 738 mmHg 74%
    19:00 +22°C° 0,8 mm 5 mps 738 mmHg 79%
    20:00 +20°C° 0,8 mm 5 mps 739 mmHg 83%
    21:00 +19°C° 0,8 mm 4 mps 739 mmHg 88%
    22:00 +18°C° 0 mm 4 mps 739 mmHg 88%
    23:00 +17°C° 0 mm 3 mps 739 mmHg 89%

    Mañana, 22 Agosto, Miércoles

    Tiempo Temperatura Precipitaciones Viento Presión Humedad
    00:00 +16°C° 0 mm 3 mps 740 mmHg 89%
    01:00 +14°C° 0 mm 3 mps 740 mmHg 88%
    02:00 +14°C° 0 mm 3 mps 741 mmHg 87%
    03:00 +13°C° 0 mm 3 mps 741 mmHg 87%
    04:00 +12°C° 0 mm 3 mps 741 mmHg 87%
    05:00 +12°C° 0 mm 3 mps 742 mmHg 88%
    06:00 +11°C° 0 mm 3 mps 742 mmHg 88%
    07:00 +13°C° 0 mm 3 mps 742 mmHg 81%
    08:00 +14°C° 0 mm 4 mps 743 mmHg 75%
    09:00 +15°C° 0 mm 5 mps 743 mmHg 68%
    10:00 +16°C° 0 mm 5 mps 743 mmHg 63%
    11:00 +17°C° 0 mm 5 mps 744 mmHg 58%
    12:00 +19°C° 0 mm 6 mps 744 mmHg 53%
    13:00 +19°C° 0 mm 6 mps 744 mmHg 52%
    14:00 +20°C° 0 mm 6 mps 744 mmHg 50%
    15:00 +20°C° 0 mm 6 mps 744 mmHg 49%
    16:00 +20°C° 0 mm 5 mps 745 mmHg 53%
    17:00 +19°C° 0 mm 4 mps 745 mmHg 56%
    18:00 +19°C° 0 mm 3 mps 745 mmHg 60%
    19:00 +17°C° 0 mm 3 mps 746 mmHg 63%
    20:00 +16°C° 0 mm 3 mps 746 mmHg 66%
    21:00 +13°C° 0 mm 3 mps 747 mmHg 69%
    22:00 +13°C° 0 mm 3 mps 747 mmHg 71%
    23:00 +12°C° 0 mm 3 mps 747 mmHg 72%

    Pasado mañana, 23 Agosto, Jueves

    Tiempo Temperatura Precipitaciones Viento Presión Humedad
    00:00 +12°C° 0 mm 2 mps 748 mmHg 74%
    01:00 +12°C° 0 mm 2 mps 748 mmHg 75%
    02:00 +10°C° 0 mm 2 mps 748 mmHg 76%
    03:00 +10°C° 0 mm 2 mps 748 mmHg 77%
    04:00 +10°C° 0 mm 2 mps 749 mmHg 78%
    05:00 +9°C° 0 mm 2 mps 749 mmHg 79%
    06:00 +9°C° 0 mm 2 mps 749 mmHg 80%
    07:00 +12°C° 0 mm 2 mps 749 mmHg 75%
    08:00 +14°C° 0 mm 2 mps 749 mmHg 69%
    09:00 +15°C° 0 mm 2 mps 750 mmHg 63%
    10:00 +17°C° 0 mm 2 mps 750 mmHg 58%
    11:00 +18°C° 0 mm 2 mps 750 mmHg 53%
    12:00 +19°C° 0 mm 2 mps 750 mmHg 48%
    13:00 +19°C° 0 mm 2 mps 750 mmHg 47%
    14:00 +20°C° 0 mm 2 mps 749 mmHg 45%
    15:00 +21°C° 0 mm 1 mps 749 mmHg 44%
    16:00 +21°C° 0 mm 1 mps 749 mmHg 47%
    17:00 +21°C° 0 mm 1 mps 749 mmHg 50%
    18:00 +21°C° 0 mm 1 mps 749 mmHg 53%
    19:00 +19°C° 0 mm 1 mps 749 mmHg 56%
    20:00 +15°C° 0 mm 0 mps 749 mmHg 59%
    21:00 +14°C° 0 mm 0 mps 749 mmHg 62%
    22:00 +13°C° 0 mm 0 mps 749 mmHg 63%
    23:00 +14°C° 0 mm 1 mps 749 mmHg 64%

    24 Agosto, Viernes

    Tiempo Temperatura Precipitaciones Viento Presión Humedad
    00:00 +14°C° 0 mm 1 mps 749 mmHg 65%
    01:00 +13°C° 0 mm 1 mps 749 mmHg 66%
    02:00 +13°C° 0 mm 1 mps 749 mmHg 68%
    03:00 +13°C° 0 mm 1 mps 749 mmHg 69%
    04:00 +12°C° 0 mm 1 mps 749 mmHg 70%
    05:00 +12°C° 0 mm 1 mps 749 mmHg 71%
    06:00 +12°C° 0 mm 1 mps 749 mmHg 73%
    07:00 +14°C° 0 mm 1 mps 749 mmHg 68%
    08:00 +16°C° 0 mm 1 mps 749 mmHg 63%
    09:00 +19°C° 0 mm 1 mps 749 mmHg 58%
    10:00 +19°C° 0 mm 2 mps 749 mmHg 54%
    11:00 +20°C° 0 mm 2 mps 749 mmHg 50%
    12:00 +21°C° 0 mm 2 mps 749 mmHg 46%
    13:00 +23°C° 0 mm 2 mps 748 mmHg 45%
    14:00 +23°C° 0 mm 2 mps 748 mmHg 44%
    15:00 +24°C° 0 mm 2 mps 748 mmHg 42%
    16:00 +23°C° 0 mm 1 mps 748 mmHg 46%
    17:00 +23°C° 0 mm 1 mps 747 mmHg 49%
    18:00 +23°C° 0 mm 1 mps 747 mmHg 52%
    19:00 +21°C° 0 mm 1 mps 747 mmHg 55%
    20:00 +19°C° 0 mm 1 mps 747 mmHg 57%
    21:00 +18°C° 0 mm 1 mps 747 mmHg 59%
    22:00 +16°C° 0 mm 1 mps 747 mmHg 60%
    23:00 +16°C° 0 mm 2 mps 747 mmHg 61%

    25 Agosto, Sábado

    Tiempo Temperatura Precipitaciones Viento Presión Humedad
    00:00 +15°C° 0 mm 2 mps 747 mmHg 62%
    01:00 +15°C° 0 mm 2 mps 747 mmHg 63%
    02:00 +15°C° 0 mm 2 mps 747 mmHg 64%
    03:00 +14°C° 0 mm 2 mps 747 mmHg 65%
    04:00 +14°C° 0 mm 2 mps 747 mmHg 67%
    05:00 +14°C° 0 mm 2 mps 747 mmHg 68%
    06:00 +13°C° 0 mm 2 mps 747 mmHg 69%
    07:00 +15°C° 0 mm 2 mps 747 mmHg 66%
    08:00 +17°C° 0 mm 2 mps 747 mmHg 62%
    09:00 +19°C° 0 mm 3 mps 747 mmHg 58%
    10:00 +21°C° 0 mm 3 mps 747 mmHg 54%
    11:00 +22°C° 0 mm 3 mps 747 mmHg 49%
    12:00 +25°C° 0 mm 4 mps 747 mmHg 45%
    13:00 +25°C° 0 mm 4 mps 747 mmHg 44%
    14:00 +25°C° 0 mm 4 mps 747 mmHg 44%
    15:00 +26°C° 0 mm 4 mps 746 mmHg 43%
    16:00 +25°C° 0 mm 3 mps 746 mmHg 47%
    17:00 +24°C° 0 mm 3 mps 746 mmHg 51%
    18:00 +24°C° 0 mm 2 mps 746 mmHg 55%
    19:00 +21°C° 0 mm 2 mps 746 mmHg 57%
    20:00 +20°C° 0 mm 2 mps 746 mmHg 58%
    21:00 +18°C° 0 mm 3 mps 746 mmHg 60%
    22:00 +17°C° 0 mm 3 mps 746 mmHg 60%
    23:00 +17°C° 0 mm 3 mps 746 mmHg 60%

    26 Agosto, Domingo

    Tiempo Temperatura Precipitaciones Viento Presión Humedad
    00:00 +16°C° 0 mm 3 mps 746 mmHg 60%
    01:00 +16°C° 0 mm 3 mps 746 mmHg 60%
    02:00 +16°C° 0 mm 3 mps 746 mmHg 61%
    03:00 +14°C° 0 mm 3 mps 746 mmHg 61%
    04:00 +14°C° 0 mm 3 mps 746 mmHg 63%
    05:00 +14°C° 0 mm 3 mps 746 mmHg 65%
    06:00 +13°C° 0 mm 3 mps 746 mmHg 66%
    07:00 +16°C° 0 mm 3 mps 747 mmHg 64%
    08:00 +18°C° 0 mm 3 mps 747 mmHg 61%
    09:00 +20°C° 0 mm 3 mps 747 mmHg 59%
    10:00 +22°C° 0 mm 4 mps 747 mmHg 54%
    11:00 +23°C° 0 mm 4 mps 747 mmHg 48%
    12:00 +26°C° 0 mm 4 mps 747 mmHg 43%
    13:00 +26°C° 0 mm 4 mps 746 mmHg 42%
    14:00 +27°C° 0 mm 4 mps 746 mmHg 41%
    15:00 +27°C° 0 mm 4 mps 746 mmHg 40%
    16:00 +26°C° 0 mm 3 mps 746 mmHg 45%
    17:00 +26°C° 0 mm 3 mps 746 mmHg 50%
    18:00 +25°C° 0 mm 3 mps 745 mmHg 55%
    19:00 +22°C° 0 mm 3 mps 745 mmHg 57%
    20:00 +21°C° 0 mm 3 mps 745 mmHg 60%
    21:00 +19°C° 0 mm 3 mps 745 mmHg 62%
    22:00 +19°C° 0 mm 3 mps 745 mmHg 63%
    23:00 +18°C° 0 mm 3 mps 745 mmHg 64%
    Mostrar más